Location: Stanford
(52.2833°N, 2.4333°W)
Time: 19:30:43
(UTC+00:00)

SMAP - Pass Details

Date: 22 January 2021
Orbit: 681 x 683 km, 98.1° (Epoch: 27 February)

Event Time Altitude Azimuth Distance (km) Brightness Sun altitude
Rises 17:49:46 0° 179° (S) 3,034 6.6 -10.6°
Reaches altitude 10° 17:52:03 10° 184° (S) 2,123 5.9 -11.0°
Maximum altitude 17:56:34 50° 260° (W) 873 4.1 -11.6°
Drops below altitude 10° 18:01:08 10° 336° (NNW) 2,139 5.7 -12.3°
Sets 18:03:27 0° 342° (NNW) 3,060 6.5 -12.6°
